Home > Time Zones > World Clock > Weather > Japan > Tokyo > Past weeks

Flag for Japan Weather past 2 weeks in Tokyo, Japan

Now
71 °F

Overcast.


Feels Like: 77 °F
Forecast: 54 / 69 °F
Wind: 12 mph from Southeast

Location: Tokyo


UV Index: 5 (Moderate)

Visibility: 6 mi


Pressure: 29.91 "Hg

Humidity: 37%

Dew point: 43 °F

Location of TokyoLocation

Historic Weather in Tokyo

°F

Tokyo temperature yesterday

Maximum temperature yesterday: 67 °F (at 11:00 AM)
Minimum temperature yesterday: 51 °F (at 5:00 AM)
Average temperature yesterday: 60 °F

Past Weeks' High & Low Weather Summary

 TemperatureHumidityPressure
High72 °F (Apr 10, 4:00 PM)96% (Apr 3, 8:00 PM)30.23 "Hg (Apr 3, 8:00 PM)
Low44 °F (Apr 7, 12:00 AM)10% (Apr 12, 1:00 PM)29.18 "Hg (Apr 4, 3:00 PM)
Average57 °F49%29.92 "Hg
* Reported Apr 1 12:00 Noon — Apr 16 12:00 Noon, Tokyo, Weather by CustomWeather, © 2014

Note: Actual official high and low records may vary slightly from our data, if they occured in-between our weather recording intervals... More about our weather records

Advertising

Historic Weather Conditions — Data for Previous 24 hours

 ConditionsComfort  
Time TempWeatherWind HumidityBarometerVisibility
12:00 PM
Apr 16
71 °FOvercast.12 mph37%29.91 "Hg6 mi
11:00 AM70 °FMild.6 mph42%29.93 "HgN/A
10:00 AM70 °FMild.7 mph37%29.95 "HgN/A
9:00 AM68 °FOvercast.6 mph34%29.94 "Hg9 mi
7:00 AM63 °FMild.3 mph28%29.91 "HgN/A
6:00 AM60 °FPartly sunny.7 mph33%29.90 "Hg12 mi
5:00 AM60 °FRefreshingly cool.7 mph40%29.90 "HgN/A
4:00 AM59 °FRefreshingly cool.6 mph48%29.89 "HgN/A
3:00 AM62 °FClear.6 mph42%29.88 "Hg12 mi
2:00 AM57 °FCool.3 mph71%29.88 "HgN/A
1:00 AM61 °FRefreshingly cool.2 mph60%29.86 "HgN/A
12:00 AM61 °FCool.5 mph65%29.88 "HgN/A
11:00 PM
Apr 15
61 °FCool.2 mph63%29.88 "HgN/A
10:00 PM62 °FRefreshingly cool.6 mph58%29.87 "HgN/A
9:00 PM62 °FPassing clouds.8 mph55%29.85 "Hg12 mi
8:00 PM63 °FMild.12 mph46%29.83 "HgN/A
7:00 PM64 °FMild.12 mph45%29.81 "HgN/A
6:00 PM65 °FPassing clouds.15 mph44%29.80 "Hg12 mi
5:00 PM67 °FMild.12 mph46%29.83 "HgN/A
4:00 PM67 °FMild.10 mph44%29.85 "HgN/A
3:00 PM67 °FPassing clouds.12 mph45%29.86 "Hg12 mi
Weather by CustomWeather, © 2014

See weather overview